This is the latest recevied weather packets stored in our database for station/object K7SKM. If no packets are shown the sender has not sent any weather packets the latest 10 day(s).
| Time | Temp. | Humidity | Pressure | Rain* | Wind** | Luminosity | Snow |
|---|---|---|---|---|---|---|---|
| 1788163552 | 12.22° C | 82% | 1020.7 hPa | 0 mm | - | 0 W/m² | - |
| 1788163248 | 12.22° C | 82% | 1020.6 hPa | 0 mm | - | 0 W/m² | - |
| 1788162942 | 12.22° C | 82% | 1020.6 hPa | 0 mm | - | 0 W/m² | - |
| 1788162638 | 12.22° C | 81% | 1020.7 hPa | 0 mm | - | 0 W/m² | - |
| 1788162338 | 12.22° C | 81% | 1020.6 hPa | 0 mm | - | 0 W/m² | - |
| 1788162038 | 12.22° C | 81% | 1020.5 hPa | 0 mm | - | 0 W/m² | - |
| 1788161732 | 12.78° C | 81% | 1020.8 hPa | 0 mm | - | 0 W/m² | - |
| 1788161432 | 12.22° C | 81% | 1020.9 hPa | 0 mm | - | 0 W/m² | - |
| 1788161127 | 12.78° C | 80% | 1020.8 hPa | 0 mm | - | 0 W/m² | - |
| 1788160824 | 12.78° C | 80% | 1020.8 hPa | 0 mm | - | 0 W/m² | - |
| 1788160522 | 12.78° C | 80% | 1020.9 hPa | 0 mm | - | 0 W/m² | - |
| 1788160218 | 12.78° C | 80% | 1021 hPa | 0 mm | - | 0 W/m² | - |
| 1788159916 | 12.78° C | 80% | 1021.2 hPa | 0 mm | - | 0 W/m² | - |
| 1788159612 | 12.78° C | 79% | 1021.1 hPa | 0 mm | - | 0 W/m² | - |
| 1788159309 | 12.78° C | 79% | 1021.3 hPa | 0 mm | - | 0 W/m² | - |
| 1788159004 | 13.33° C | 79% | 1021.1 hPa | 0 mm | - | 0 W/m² | - |
| 1788158699 | 13.33° C | 78% | 1021.3 hPa | 0 mm | - | 0 W/m² | - |
| 1788158394 | 13.33° C | 78% | 1021.2 hPa | 0 mm | - | 0 W/m² | - |
| 1788158090 | 13.33° C | 78% | 1021.3 hPa | 0 mm | - | 0 W/m² | - |
| 1788157783 | 13.33° C | 77% | 1021.3 hPa | 0 mm | - | 0 W/m² | - |
| 1788157479 | 13.89° C | 77% | 1021.5 hPa | 0 mm | - | 0 W/m² | - |
| 1788157178 | 13.89° C | 77% | 1021.5 hPa | 0 mm | - | 0 W/m² | - |
| 1788156877 | 13.89° C | 76% | 1021.6 hPa | 0 mm | - | 0 W/m² | - |
| 1788156574 | 13.89° C | 76% | 1021.5 hPa | 0 mm | - | 0 W/m² | - |
| 1788156274 | 14.44° C | 75% | 1021.4 hPa | 0 mm | - | 0 W/m² | - |
* Rain latest hour (hover to see other rain measurements)
** Current wind speed in m/s (hover to see current wind gust speed)